{"data":{"norad_id":67261,"epoch":"2026-09-20T04:15:32.766048Z","epoch_age_seconds":130843,"freshness":"FRESH","line1":"1 67261U 25313P   26263.17746257  .00012313  00000+0  43547-3 0  9999","line2":"2 67261  97.3892 337.5655 0012863  29.8994 330.2978 15.29233066 40482","mean_motion":15.29233066,"eccentricity":0.0012863,"inclination_deg":97.3892,"raan_deg":337.5655,"arg_perigee_deg":29.8994,"mean_anomaly_deg":330.2978,"bstar":0.00043547,"rev_number":4048,"period_min":94.164848512372,"perigee_km":469.28449881329,"apogee_km":486.92286358975,"semimajor_km":6856.2406812015,"source":"CELESTRAK","updated_at":"2026-09-21T09:00:16.514438Z"}}